Retour au catalogue

STARLINK-32130

ActifCommunicationsVLEO
NORAD 60585·PAYLOAD·🇺🇸 United States

Lancé Aug 20, 2024 depuis Cape Canaveral Space Force Station

Loading…

Prochains Passages (prochaines 24 heures)

TLE

FraisSource: CelesTrak SupGP

Époque: Sep 15, 2026, 02:09 UTC

1 60585C 24150C   26258.09006944  .00008676  00000+0  25633-3 0  2587
2 60585  53.1601 146.9945 0001387  85.7590 270.5756 15.34385546    10

Suivez STARLINK-32130 en temps réel avec AllMySat

Download on the App Store